Change the Weather History Date:

Wednesday, January 6, 2010

  Actual Average Record
Temperature  
Mean Temperature 30 °F -  
Max Temperature 37 °F 36 °F - ()
Min Temperature 22 °F 23 °F - ()
Degree Days  
Heating Degree Days 36    
Moisture  
Dew Point 31 °F    
Average Humidity 94    
Maximum Humidity 100    
Minimum Humidity 75    
Precipitation  
Precipitation 0.01 in 0.05 in - ()
Sea Level Pressure  
Sea Level Pressure 29.75 in    
Wind  
Wind Speed 4 mph ()    
Max Wind Speed 8 mph    
Max Gust Speed -    
Visibility 3.3 miles    
Events Rain , Snow    
T = Trace of Precipitation, MM = Missing Value Source: Averaged Metar Reports

Daily Weather History Graph

Daily Weather History Graph

Search for Another Location

Airport or City:

Trip Planner

Search our weather history database for the weather conditions in past years. The results will help you decide how hot, cold, wet, or windy it might be!

Date:

Astronomy

Jan. 06, 2010 Rise Set
Actual Time 7:52 AM EET 4:51 PM EET
Civil Twilight 7:18 AM EET 5:24 PM EET
Nautical Twilight 6:42 AM EET 6:00 PM EET
Astronomical Twilight 6:07 AM EET 6:35 PM EET
Moon No Moon Rise 10:51 AM EET (1/6)
Length of Visible Light 10h 05m
Length of Day
8h 59m
Waning Gibbous, 61% of the Moon is Illuminated
Jan 6
Waning Gibbous
Jan 7
Last Quarter
Jan 15
New
Jan 23
First Quarter
Jan 30
Full

Hourly Weather History & Observations

Time (EET) Temp. Windchill Dew Point Humidity Pressure Visibility Wind Dir Wind Speed Gust Speed Precip Events Conditions
12:00 AM 25 °F - 22 °F 82% 29.98 in 6 mi NNE 2.2 mph - -   Mostly Cloudy
12:00 AM 26.6 °F 22.6 °F 24.8 °F 93% 29.95 in 4.3 mi NE 3.5 mph - N/A   Unknown
12:30 AM 26.6 °F 22.6 °F 26.6 °F 100% 29.95 in 3.7 mi ENE 3.5 mph - N/A   Scattered Clouds
1:00 AM 26 °F - 23 °F 83% 29.96 in 6 mi NNE 2.2 mph - -   Mostly Cloudy
1:00 AM 26.6 °F 20.0 °F 26.6 °F 100% 29.92 in 3.1 mi NE 5.8 mph - N/A Snow Light Snow
1:30 AM 28.4 °F 22.2 °F 26.6 °F 93% 29.92 in 3.1 mi East 5.8 mph - N/A   Mostly Cloudy
2:00 AM 27 °F - 24 °F 86% 29.92 in 6 mi NE 4.5 mph - -   Mostly Cloudy
2:00 AM 28.4 °F 23.3 °F 26.6 °F 93% 29.89 in 3.1 mi ENE 4.6 mph - N/A   Mist
2:30 AM 28.4 °F - 28.4 °F 100% 29.89 in 3.1 mi Variable 2.3 mph - N/A   Mist
3:00 AM 27 °F - 25 °F 90% 29.91 in 6 mi NE 2.2 mph - -   Clear
3:00 AM 28.4 °F 21.2 °F 26.6 °F 93% 29.89 in 3.1 mi ENE 6.9 mph - N/A   Mist
3:30 AM 28.4 °F 23.3 °F 26.6 °F 93% 29.86 in 2.5 mi ENE 4.6 mph - N/A   Mist
4:00 AM 26 °F - 25 °F 93% 29.88 in 6 mi NNE 2.2 mph - -   Clear
4:00 AM 26.6 °F 20.0 °F 26.6 °F 100% 29.86 in 2.5 mi ENE 5.8 mph - N/A   Mist
4:30 AM 28.4 °F 21.2 °F 26.6 °F 93% 29.83 in 2.5 mi ENE 6.9 mph - N/A   Mist
5:00 AM 27 °F - 26 °F 93% 29.84 in 6 mi NNE 4.5 mph - -   Clear
5:00 AM 28.4 °F 21.2 °F 26.6 °F 93% 29.80 in 3.1 mi ENE 6.9 mph - N/A   Mist
5:30 AM 28.4 °F 21.2 °F 26.6 °F 93% 29.80 in 3.1 mi ENE 6.9 mph - N/A   Mist
6:00 AM 27 °F - 26 °F 94% 29.81 in 6 mi NNE 4.5 mph - -   Overcast
6:00 AM 28.4 °F 22.2 °F 28.4 °F 100% 29.80 in 2.5 mi East 5.8 mph - N/A   Mist
6:30 AM 30.2 °F 24.3 °F 28.4 °F 93% 29.80 in 2.5 mi ENE 5.8 mph - N/A   Mist
7:00 AM 28 °F - 27 °F 95% 29.79 in 6 mi NNE 4.5 mph - -   Overcast
7:00 AM 30.2 °F 23.4 °F 28.4 °F 93% 29.77 in 3.1 mi NE 6.9 mph - N/A   Mist
7:30 AM 30.2 °F 24.3 °F 28.4 °F 93% 29.77 in 4.3 mi NE 5.8 mph - N/A   Unknown
8:00 AM 29 °F - 28 °F 94% 29.78 in 6 mi NNE 4.5 mph - -   Overcast
8:00 AM 30.2 °F 22.6 °F 30.2 °F 100% 29.77 in 4.3 mi ENE 8.1 mph - N/A   Unknown
8:30 AM 32.0 °F 25.6 °F 30.2 °F 93% 29.77 in 4.3 mi ENE 6.9 mph - N/A   Unknown
9:00 AM 30 °F - 29 °F 93% 29.76 in - NE 4.5 mph - -  
9:00 AM 32.0 °F 26.4 °F 30.2 °F 93% 29.74 in 4.3 mi ENE 5.8 mph - N/A   Unknown
9:30 AM 32.0 °F 24.8 °F 32.0 °F 100% 29.74 in 4.3 mi East 8.1 mph - N/A   Mostly Cloudy
10:00 AM 32 °F - 31 °F 93% 29.74 in - ENE 6.7 mph - -  
10:00 AM 33.8 °F 27.7 °F 32.0 °F 93% 29.74 in 4.3 mi East 6.9 mph - N/A   Mostly Cloudy
10:30 AM 33.8 °F 28.6 °F 33.8 °F 100% 29.74 in 3.1 mi ENE 5.8 mph - N/A Rain Light Rain
11:00 AM 34 °F - 33 °F 92% 29.73 in - NE 4.5 mph - -  
11:00 AM 33.8 °F 27.0 °F 33.8 °F 100% 29.68 in 3.1 mi East 8.1 mph - N/A   Mostly Cloudy
11:30 AM 33.8 °F 28.6 °F 33.8 °F 100% 29.68 in 3.1 mi East 5.8 mph - N/A Rain Light Rain
12:00 PM 35 °F - 32 °F 85% 29.70 in - NE 4.5 mph - -  
12:00 PM 35.6 °F 30.7 °F 33.8 °F 93% 29.68 in 3.1 mi ENE 5.8 mph - N/A Rain Light Rain
12:30 PM 35.6 °F 32.8 °F 35.6 °F 100% 29.68 in 3.7 mi NE 3.5 mph - N/A Rain Light Rain
1:00 PM 35 °F - 32 °F 85% 29.68 in 6 mi NE 4.5 mph - -   Clear
1:00 PM 35.6 °F 31.7 °F 33.8 °F 93% 29.68 in 3.7 mi ENE 4.6 mph - N/A   Partly Cloudy
1:30 PM 35.6 °F 31.7 °F 35.6 °F 100% 29.68 in 3.7 mi NE 4.6 mph - N/A   Partly Cloudy
2:00 PM 36 °F - 33 °F 82% 29.67 in 6 mi North 4.5 mph - -   Mostly Cloudy
2:00 PM 35.6 °F 32.8 °F 35.6 °F 100% 29.68 in 3.7 mi NNE 3.5 mph - N/A   Unknown
2:30 PM 37.4 °F - 35.6 °F 93% 29.68 in 3.7 mi Variable 1.2 mph - N/A   Unknown
3:00 PM 38 °F - 33 °F 75% 29.68 in 6 mi North 2.2 mph - -   Overcast
3:00 PM 37.4 °F - 35.6 °F 93% 29.68 in 3.7 mi Calm Calm - N/A Rain Light Rain
3:30 PM 37.4 °F - 37.4 °F 100% 29.68 in 3.1 mi Variable 2.3 mph - N/A Rain Light Rain
4:00 PM 37 °F - 33 °F 79% 29.68 in 2 mi WNW 2.2 mph - - Rain Light Rain
4:00 PM 37.4 °F - 35.6 °F 93% 29.68 in 2.5 mi Variable 2.3 mph - N/A Rain Light Rain
4:30 PM 35.6 °F - 35.6 °F 100% 29.65 in 1.9 mi Variable 2.3 mph - N/A Rain Light Rain
5:00 PM 35 °F - 33 °F 91% 29.68 in 2 mi NW 2.2 mph - - Rain Light Rain
5:00 PM 35.6 °F - 35.6 °F 100% 29.68 in 0.9 mi Variable 1.2 mph - N/A Rain Light Rain
5:30 PM 35.6 °F - 35.6 °F 100% 29.68 in 1.2 mi WNW 1.2 mph - N/A   Partly Cloudy
6:00 PM 34 °F - 33 °F 96% 29.67 in 2 mi Calm Calm - - Rain Light Rain
6:00 PM 35.6 °F - 35.6 °F 100% 29.68 in 1.9 mi Calm Calm - N/A   Mist
6:30 PM 37.4 °F - 35.6 °F 93% 29.68 in 1.9 mi Variable 1.2 mph - N/A   Mist
7:00 PM 34 °F - 33 °F 96% 29.67 in 6 mi SSW 2.2 mph - -   Mostly Cloudy
7:00 PM 35.6 °F 32.8 °F 35.6 °F 100% 29.68 in 1.6 mi West 3.5 mph - N/A   Mist
7:30 PM 35.6 °F 32.8 °F 35.6 °F 100% 29.68 in 1.6 mi West 3.5 mph - N/A   Mist
8:00 PM 34 °F - 34 °F 99% 29.67 in 2 mi WSW 2.2 mph - -   Partly Cloudy
8:00 PM 35.6 °F 32.8 °F 35.6 °F 100% 29.68 in 1.2 mi West 3.5 mph - N/A   Mist
8:30 PM 35.6 °F 32.8 °F 33.8 °F 93% 29.68 in 1.2 mi WNW 3.5 mph - N/A   Mist
9:00 PM 34 °F - 33 °F 97% 29.68 in 2 mi SW 4.5 mph - -   Mist
9:00 PM 35.6 °F 31.7 °F 33.8 °F 93% 29.68 in 1.2 mi West 4.6 mph - N/A   Mist
9:30 PM 35.6 °F 31.7 °F 33.8 °F 93% 29.68 in 1.2 mi West 4.6 mph - N/A   Mist
10:00 PM 33 °F - 33 °F 100% 29.68 in 2 mi WSW 2.2 mph - -   Mist
10:00 PM 35.6 °F 32.8 °F 33.8 °F 93% 29.68 in 1.2 mi WNW 3.5 mph - N/A   Mist
10:30 PM 35.6 °F 31.7 °F 33.8 °F 93% 29.68 in 1.2 mi WNW 4.6 mph - N/A   Mist
11:00 PM 34 °F - 34 °F 98% 29.68 in 2 mi West 4.5 mph - -   Mist
11:00 PM 35.6 °F 30.7 °F 33.8 °F 93% 29.68 in 1.2 mi West 5.8 mph - N/A   Mist
11:30 PM 35.6 °F 31.7 °F 35.6 °F 100% 29.68 in 1.6 mi West 4.6 mph - N/A   Mist